Hourly Data Report for January 01, 2013

BAGOTVILLE A
QUEBEC

48°20'00.000" N
71°00'00.000" W
159.10 m
7060400
71727
YBG

Download Data

Hourly Data (January 2013)
Hourly Data Report for January 1, 2013
TIME
LST
Temp Definition
°C
Dew Point Definition
°C
Rel Hum Definition
%
Precip. Amount Definition
mm

Wind Dir Definition
10's deg

Wind Spd Definition
km/h
Visibility Definition
km
Stn Press Definition
kPa
Hmdx Definition


Wind Chill Definition


Weather Definition


00:00 -14.2 -15.9 87   9 6 1.2 97.93   -18 Snow
01:00 -14.7 -16.4 87     0 1.2 97.91     Snow
02:00 -13.5 -15.6 84   28 9 1.2 97.98   -19 Snow
03:00 -13.0 -15.0 85   28 24 1.2 98.08   -22 Snow
04:00 -12.2 -14.6 82   29 28 0.8 98.24   -22 Snow,Blowing Snow
05:00 -13.2 -15.7 81   29 26 0.8 98.29   -23 Snow,Blowing Snow
06:00 -13.3 -15.9 81   29 30 0.8 98.37   -24 Snow,Blowing Snow
07:00 -14.3 -16.5 83   29 37 1.2 98.47   -26 Snow,Blowing Snow
08:00 -15.4 -18.3 78   29 41 8.0 98.55   -28 Snow,Blowing Snow
09:00 -16.6 -19.7 77   29 33 24.1 98.64   -29 Mainly Clear
10:00 -16.8 -20.0 76   29 35 24.1 98.72   -29 Mainly Clear
11:00 -16.6 -21.1 68   29 37 16.1 98.73   -29 Mainly Clear
12:00 -16.6 -21.1 68   30 32 24.1 98.69   -28 Mainly Clear
13:00 -16.4 -20.8 69   29 33 24.1 98.65   -28 Mainly Clear
14:00 -16.0 -20.3 69   29 32 24.1 98.65   -28 Mostly Cloudy
15:00 -16.5 -20.3 72   30 24 24.1 98.70   -27 Mostly Cloudy
16:00 -16.6 -21.1 68   30 20 24.1 98.73   -26 Mostly Cloudy
17:00 -17.6 -20.9 75   30 20 24.1 98.78   -27 Mainly Clear
18:00 -18.5 -22.0 74   29 13 24.1 98.81   -27 Mainly Clear
19:00 -18.9 -21.7 79   30 15 24.1 98.84   -28 Mainly Clear
20:00 -18.5 -22.0 74   29 26 24.1 98.93   -30 Mostly Cloudy
21:00 -19.2 -22.8 73   29 24 19.3 98.96   -30 Snow
22:00 -19.9 -23.7 72   29 26 24.1 98.98   -32 Mainly Clear
23:00 -20.3 -24.2 71   28 22 24.1 99.00   -31 Mainly Clear

Notes on Data Quality.

Legend

  • E = Estimated
  • M = Missing
  • NA = Not Available*
  • [empty] = Indicates an unobserved value
Date modified: